When you browse on this site, cookies collect data to enhance your experience and personalize the content and advertising you see.
Visit our Privacy Policy to learn more. By continuing to use the site, you agree to this use of cookies and data.
  • In Spain
  • List of Countries
  • For 7 days
  • Water Temperature
  • Satellite Maps
  • Weather Map
  • Weather Widgets
  • user-avatar
    Login

    Hourly Weather Cam Ranh

    Today, 19 February, Tuesday

    Time Temperature Precipitation Wind Pressure Humidity
    00:00 +25°C° 0 mm 2 mps 756 mmHg 97%
    01:00 +25°C° 0 mm 2 mps 755 mmHg 97%
    02:00 +24°C° 0 mm 2 mps 755 mmHg 96%
    03:00 +24°C° 0 mm 2 mps 755 mmHg 95%
    04:00 +24°C° 0 mm 2 mps 755 mmHg 95%
    05:00 +24°C° 0 mm 2 mps 755 mmHg 91%
    06:00 +25°C° 0 mm 2 mps 756 mmHg 88%
    07:00 +25°C° 0 mm 1 mps 756 mmHg 85%
    08:00 +28°C° 0 mm 1 mps 756 mmHg 74%
    09:00 +31°C° 0 mm 1 mps 756 mmHg 63%
    10:00 +33°C° 0 mm 1 mps 757 mmHg 52%
    11:00 +34°C° 0 mm 1 mps 756 mmHg 51%
    12:00 +35°C° 0 mm 2 mps 756 mmHg 50%
    13:00 +36°C° 0 mm 3 mps 755 mmHg 49%
    14:00 +35°C° 0 mm 3 mps 755 mmHg 53%
    15:00 +34°C° 0 mm 3 mps 755 mmHg 57%
    16:00 +33°C° 0 mm 3 mps 754 mmHg 60%
    17:00 +30°C° 0 mm 2 mps 755 mmHg 71%
    18:00 +28°C° 0 mm 2 mps 755 mmHg 82%
    19:00 +26°C° 0 mm 1 mps 756 mmHg 92%
    20:00 +26°C° 0 mm 1 mps 756 mmHg 94%
    21:00 +25°C° 0 mm 2 mps 757 mmHg 95%
    22:00 +25°C° 0 mm 2 mps 757 mmHg 97%
    23:00 +25°C° 0 mm 2 mps 757 mmHg 96%

    Tomorrow, 20 February, Wednesday

    Time Temperature Precipitation Wind Pressure Humidity
    00:00 +24°C° 0 mm 2 mps 757 mmHg 96%
    01:00 +24°C° 0 mm 2 mps 757 mmHg 96%
    02:00 +24°C° 0 mm 2 mps 756 mmHg 95%
    03:00 +24°C° 0 mm 2 mps 756 mmHg 93%
    04:00 +24°C° 0 mm 3 mps 756 mmHg 92%
    05:00 +24°C° 0 mm 3 mps 756 mmHg 89%
    06:00 +25°C° 0 mm 3 mps 757 mmHg 86%
    07:00 +25°C° 0 mm 3 mps 757 mmHg 83%
    08:00 +28°C° 0 mm 3 mps 757 mmHg 73%
    09:00 +31°C° 0 mm 3 mps 758 mmHg 63%
    10:00 +34°C° 0 mm 3 mps 758 mmHg 54%
    11:00 +35°C° 0.1 mm 3 mps 757 mmHg 54%
    12:00 +35°C° 0.1 mm 4 mps 757 mmHg 54%
    13:00 +35°C° 0.1 mm 4 mps 756 mmHg 54%
    14:00 +34°C° 0 mm 4 mps 755 mmHg 59%
    15:00 +33°C° 0 mm 4 mps 755 mmHg 63%
    16:00 +32°C° 0 mm 4 mps 754 mmHg 68%
    17:00 +30°C° 0 mm 4 mps 755 mmHg 77%
    18:00 +28°C° 0 mm 3 mps 755 mmHg 87%
    19:00 +26°C° 0 mm 3 mps 756 mmHg 96%
    20:00 +26°C° 0.1 mm 3 mps 756 mmHg 96%
    21:00 +26°C° 0.1 mm 3 mps 757 mmHg 97%
    22:00 +25°C° 0.1 mm 3 mps 757 mmHg 97%
    23:00 +25°C° 0.1 mm 2 mps 757 mmHg 97%

    Day after tomorrow, 21 February, Thursday

    Time Temperature Precipitation Wind Pressure Humidity
    00:00 +25°C° 0.1 mm 2 mps 757 mmHg 97%
    01:00 +25°C° 0.1 mm 2 mps 756 mmHg 97%
    02:00 +25°C° 0.1 mm 2 mps 756 mmHg 97%
    03:00 +25°C° 0.1 mm 2 mps 756 mmHg 96%
    04:00 +25°C° 0.1 mm 2 mps 755 mmHg 95%
    05:00 +25°C° 0 mm 2 mps 756 mmHg 94%
    06:00 +25°C° 0 mm 2 mps 756 mmHg 92%
    07:00 +26°C° 0 mm 2 mps 757 mmHg 91%
    08:00 +28°C° 0 mm 3 mps 757 mmHg 79%
    09:00 +30°C° 0 mm 3 mps 757 mmHg 68%
    10:00 +34°C° 0 mm 3 mps 758 mmHg 56%
    11:00 +34°C° 0 mm 3 mps 757 mmHg 54%
    12:00 +35°C° 0 mm 4 mps 756 mmHg 52%
    13:00 +35°C° 0 mm 4 mps 755 mmHg 49%
    14:00 +34°C° 0 mm 4 mps 754 mmHg 54%
    15:00 +33°C° 0 mm 4 mps 754 mmHg 58%
    16:00 +32°C° 0 mm 4 mps 753 mmHg 63%
    17:00 +29°C° 0 mm 4 mps 754 mmHg 73%
    18:00 +28°C° 0 mm 3 mps 754 mmHg 84%
    19:00 +26°C° 0 mm 3 mps 755 mmHg 95%
    20:00 +25°C° 0 mm 2 mps 755 mmHg 96%
    21:00 +25°C° 0 mm 2 mps 756 mmHg 97%
    22:00 +25°C° 0 mm 2 mps 756 mmHg 97%
    23:00 +25°C° 0 mm 2 mps 756 mmHg 97%

    22 February, Friday

    Time Temperature Precipitation Wind Pressure Humidity
    00:00 +24°C° 0 mm 2 mps 755 mmHg 97%
    01:00 +24°C° 0 mm 1 mps 755 mmHg 97%
    02:00 +24°C° 0 mm 1 mps 755 mmHg 96%
    03:00 +24°C° 0 mm 1 mps 754 mmHg 96%
    04:00 +24°C° 0 mm 1 mps 754 mmHg 95%
    05:00 +24°C° 0 mm 1 mps 755 mmHg 93%
    06:00 +25°C° 0 mm 1 mps 755 mmHg 90%
    07:00 +25°C° 0 mm 1 mps 756 mmHg 87%
    08:00 +28°C° 0 mm 2 mps 756 mmHg 77%
    09:00 +30°C° 0 mm 2 mps 756 mmHg 66%
    10:00 +32°C° 0 mm 2 mps 756 mmHg 56%
    11:00 +34°C° 0 mm 2 mps 756 mmHg 52%
    12:00 +35°C° 0 mm 3 mps 755 mmHg 48%
    13:00 +35°C° 0 mm 3 mps 754 mmHg 45%
    14:00 +34°C° 0 mm 3 mps 754 mmHg 49%
    15:00 +33°C° 0 mm 3 mps 753 mmHg 52%
    16:00 +31°C° 0 mm 3 mps 753 mmHg 56%
    17:00 +29°C° 0 mm 3 mps 753 mmHg 68%
    18:00 +27°C° 0 mm 2 mps 754 mmHg 80%
    19:00 +25°C° 0 mm 2 mps 755 mmHg 92%
    20:00 +24°C° 0 mm 2 mps 755 mmHg 93%
    21:00 +24°C° 0 mm 2 mps 755 mmHg 95%
    22:00 +23°C° 0 mm 2 mps 756 mmHg 96%
    23:00 +23°C° 0 mm 2 mps 756 mmHg 94%

    23 February, Saturday

    Time Temperature Precipitation Wind Pressure Humidity
    00:00 +23°C° 0 mm 2 mps 755 mmHg 93%
    01:00 +23°C° 0 mm 2 mps 755 mmHg 92%
    02:00 +23°C° 0 mm 2 mps 755 mmHg 90%
    03:00 +21°C° 0 mm 2 mps 754 mmHg 89%
    04:00 +21°C° 0 mm 2 mps 754 mmHg 88%
    05:00 +23°C° 0 mm 2 mps 755 mmHg 85%
    06:00 +24°C° 0 mm 2 mps 755 mmHg 83%
    07:00 +24°C° 0 mm 2 mps 756 mmHg 80%
    08:00 +27°C° 0 mm 2 mps 756 mmHg 72%
    09:00 +29°C° 0 mm 2 mps 756 mmHg 64%
    10:00 +32°C° 0 mm 2 mps 757 mmHg 56%
    11:00 +34°C° 0 mm 3 mps 756 mmHg 53%
    12:00 +34°C° 0 mm 3 mps 755 mmHg 51%
    13:00 +35°C° 0 mm 3 mps 754 mmHg 48%
    14:00 +34°C° 0 mm 3 mps 753 mmHg 53%
    15:00 +33°C° 0 mm 3 mps 753 mmHg 57%
    16:00 +32°C° 0 mm 4 mps 752 mmHg 62%
    17:00 +29°C° 0 mm 3 mps 753 mmHg 72%
    18:00 +27°C° 0 mm 3 mps 754 mmHg 83%
    19:00 +25°C° 0 mm 3 mps 754 mmHg 93%
    20:00 +24°C° 0 mm 3 mps 755 mmHg 94%
    21:00 +24°C° 0 mm 2 mps 755 mmHg 95%
    22:00 +24°C° 0 mm 2 mps 755 mmHg 96%
    23:00 +23°C° 0 mm 2 mps 755 mmHg 95%

    24 February, Sunday

    Time Temperature Precipitation Wind Pressure Humidity
    00:00 +23°C° 0 mm 2 mps 755 mmHg 94%
    01:00 +23°C° 0 mm 2 mps 755 mmHg 93%
    02:00 +23°C° 0 mm 2 mps 754 mmHg 93%
    03:00 +21°C° 0 mm 2 mps 754 mmHg 92%
    04:00 +21°C° 0 mm 2 mps 754 mmHg 91%
    05:00 +23°C° 0 mm 2 mps 755 mmHg 88%
    06:00 +23°C° 0 mm 2 mps 755 mmHg 85%
    07:00 +24°C° 0 mm 2 mps 756 mmHg 82%
    08:00 +27°C° 0 mm 2 mps 756 mmHg 71%
    09:00 +29°C° 0 mm 2 mps 756 mmHg 61%
    10:00 +32°C° 0 mm 2 mps 756 mmHg 50%
    11:00 +34°C° 0 mm 3 mps 755 mmHg 45%
    12:00 +35°C° 0 mm 3 mps 754 mmHg 39%
    13:00 +36°C° 0 mm 3 mps 753 mmHg 34%
    14:00 +35°C° 0 mm 3 mps 753 mmHg 37%
    15:00 +34°C° 0 mm 3 mps 752 mmHg 40%
    16:00 +33°C° 0 mm 3 mps 752 mmHg 43%
    17:00 +29°C° 0 mm 3 mps 752 mmHg 56%
    18:00 +27°C° 0 mm 3 mps 753 mmHg 69%
    19:00 +24°C° 0 mm 2 mps 753 mmHg 81%
    20:00 +24°C° 0 mm 2 mps 754 mmHg 81%
    21:00 +24°C° 0 mm 2 mps 754 mmHg 81%
    22:00 +23°C° 0 mm 2 mps 754 mmHg 81%
    23:00 +23°C° 0 mm 2 mps 754 mmHg 79%
    Show more